GW7408 Weather Reports


time (UTC)temp
C
wind
direction
speed
KPH
gust
KPH
rain 1hr
cm
rain 24hr
cm
rain mn
cm
humidity
%
barometer
mb
20260901000714 21 0.0 0.0 0.00 0.00 0.00 88 1019.7
20260901000218 21 0.0 0.0 0.00 0.00 0.00 88 1019.8
20260831235715 21 0.0 0.0 0.00 0.00 0.00 88 1019.8
20260831235217 21 0.0 0.0 0.00 0.00 0.00 87 1019.8
20260831234719 21 0.0 0.0 0.00 0.00 0.00 87 1019.8
20260831234215 21 0.0 0.0 0.00 0.00 0.00 87 1019.8
20260831233714 21 0.0 0.0 0.00 0.00 0.00 87 1019.8
20260831233219 21 0.0 0.0 0.00 0.00 0.00 86 1019.9
20260831232735 22 0.0 0.0 0.00 0.00 0.00 86 1019.8
20260831232215 22 0.0 0.0 0.00 0.00 0.00 86 1019.9
20260831231716 22 0.0 0.0 0.00 0.00 0.00 86 1020.1
20260831231218 22 0.0 0.0 0.00 0.00 0.00 86 1020.1
20260831230715 22 0.0 0.0 0.00 0.00 0.00 85 1020.1
20260831230222 22 0.0 0.0 0.00 0.00 0.00 84 1020.4
20260831225716 22 0.0 0.0 0.00 0.00 0.00 84 1020.4
20260831225215 22 0.0 0.0 0.00 0.00 0.00 84 1020.4
20260831224719 22 0.0 0.0 0.00 0.00 0.00 83 1020.3
20260831224215 22 0.0 0.0 0.00 0.00 0.00 82 1020.3
20260831223715 22 0.0 0.0 0.00 0.00 0.00 82 1020.3
20260831223219 22 0.0 0.0 0.00 0.00 0.00 82 1020.4
20260831222736 23 0.0 0.0 0.00 0.00 0.00 81 1020.4
20260831222235 23 0.0 0.0 0.00 0.00 0.00 81 1020.4
20260831221736 23 0.0 0.0 0.00 0.00 0.00 79 1020.4
20260831221218 23 0.0 0.0 0.00 0.00 0.00 77 1020.4
20260831220855 23 149 1.6 3.2 0.00 0.00 0.00 77 1020.4
20260831220216 23 0.0 0.0 0.00 0.00 0.00 77 1020.5
20260831215718 23 129 1.6 3.2 0.00 0.00 0.00 79 1020.5
20260831215234 23 129 0.0 1.6 0.00 0.00 0.00 77 1020.5
20260831214739 23 112 1.6 3.2 0.00 0.00 0.00 77 1020.7
20260831214218 23 13 0.0 3.2 0.00 0.00 0.00 78 1020.7
20260831213715 23 13 0.0 3.2 0.00 0.00 0.00 78 1020.7
20260831213219 23 0.0 0.0 0.00 0.00 0.00 78 1020.9
20260831212716 23 0.0 0.0 0.00 0.00 0.00 79 1020.9
20260831212215 23 13 0.0 3.2 0.00 0.00 0.00 78 1020.9
20260831211717 23 13 1.6 1.6 0.00 0.00 0.00 78 1020.9
20260831211216 23 13 1.6 1.6 0.00 0.00 0.00 80 1020.9
20260831210715 23 13 0.0 1.6 0.00 0.00 0.00 79 1020.9
20260831210219 23 0.0 0.0 0.00 0.00 0.00 80 1020.8
20260831205738 23 0.0 0.0 0.00 0.00 0.00 79 1020.8
20260831205215 23 13 0.0 3.2 0.00 0.00 0.00 79 1020.8
20260831204717 23 0.0 0.0 0.00 0.00 0.00 80 1020.9
20260831204218 23 0.0 0.0 0.00 0.00 0.00 81 1020.9
20260831203715 23 0.0 0.0 0.00 0.00 0.00 81 1020.9
20260831203240 23 0.0 0.0 0.00 0.00 0.00 79 1021.1
20260831202716 23 0.0 0.0 0.00 0.00 0.00 79 1021.2
20260831202217 23 0.0 0.0 0.00 0.00 0.00 79 1021.1
20260831201719 23 0.0 0.0 0.00 0.00 0.00 78 1021.3
20260831201215 23 0.0 0.0 0.00 0.00 0.00 77 1021.3
20260831200715 23 0.0 0.0 0.00 0.00 0.00 76 1021.3
20260831200217 23 13 1.6 1.6 0.00 0.00 0.00 76 1021.3
20260831195716 24 133 1.6 1.6 0.00 0.00 0.00 75 1021.3
20260831195215 23 133 1.6 1.6 0.00 0.00 0.00 75 1021.3
20260831194757 24 133 0.0 1.6 0.00 0.00 0.00 77 1021.4
20260831194216 23 133 1.6 1.6 0.00 0.00 0.00 76 1021.4
20260831193718 23 133 1.6 1.6 0.00 0.00 0.00 76 1021.4
20260831193217 24 133 1.6 1.6 0.00 0.00 0.00 76 1021.6
20260831192716 24 133 0.0 3.2 0.00 0.00 0.00 77 1021.6
20260831192215 24 0.0 0.0 0.00 0.00 0.00 75 1021.6
20260831191717 23 133 0.0 3.2 0.00 0.00 0.00
20260831191219 24 0.0 0.0 0.00 0.00 0.00
20260831190715 24 0.0 0.0 0.00 0.00 0.00 74 1021.8
20260831190217 23 0.0 0.0 0.00 0.00 0.00 74 1022.0
20260831185716 23 0.0 0.0 0.00 0.03 0.00 77 1022.0
20260831185235 23 0.0 0.0 0.00 0.05 0.00 75 1022.0
20260831184717 24 133 0.0 1.6 0.00 0.05 0.00 73 1021.9
20260831184239 24 133 1.6 1.6 0.00 0.05 0.00 74 1021.9
20260831183718 24 0.0 0.0 0.00 0.05 0.00 74 1021.9
20260831183217 24 0.0 0.0 0.00 0.05 0.00 75 1021.8
20260831182716 24 0.0 0.0 0.00 0.05 0.00 72 1021.8
20260831182235 23 0.0 0.0 0.00 0.05 0.00 77 1021.8
20260831181717 23 0.0 0.0 0.00 0.05 0.00 76 1021.8
20260831181219 23 0.0 0.0 0.00 0.05 0.00
20260831180735 23 133 0.0 1.6 0.00 0.05 0.00
20260831180217 23 129 0.0 1.6 0.00 0.05 0.00
20260831175716 24 0.0 0.0 0.00 0.05 0.00
20260831175215 24 0.0 0.0 0.00 0.05 0.00
20260831174717 24 163 0.0 1.6 0.00 0.05 0.00
20260831174219 24 133 1.6 1.6 0.00 0.05 0.00 71 1022.1
20260831173715 24 127 0.0 1.6 0.00 0.05 0.00 71 1022.1
20260831173217 24 176 1.6 3.2 0.00 0.05 0.00 73 1022.1
20260831172719 23 0.0 0.0 0.00 0.05 0.00 74 1022.1
20260831172238 23 0.0 0.0 0.00 0.05 0.00 76 1022.1
20260831171717 23 0.0 0.0 0.00 0.05 0.00 75 1022.2
20260831171236 23 0.0 0.0 0.00 0.05 0.00 76 1022.2
20260831170715 23 0.0 0.0 0.00 0.05 0.00 75 1022.2
20260831170217 23 264 1.6 1.6 0.00 0.05 0.00 75 1022.2
20260831165739 23 0.0 0.0 0.00 0.05 0.00 75 1022.1
20260831165215 23 0.0 0.0 0.00 0.05 0.00 76 1022.1
20260831164720 23 264 1.6 1.6 0.00 0.05 0.00 74 1022.1
20260831164219 23 0.0 0.0 0.00 0.05 0.00 73 1022.1
20260831163735 24 264 1.6 1.6 0.00 0.05 0.00 72 1022.1
20260831163217 24 264 0.0 1.6 0.00 0.05 0.00 72 1022.1
20260831162719 24 264 1.6 1.6 0.00 0.05 0.00 72 1022.1
20260831162215 24 0.0 0.0 0.00 0.05 0.00 70 1022.1
20260831161717 24 264 0.0 1.6 0.00 0.05 0.00 70 1022.1
20260831161216 24 264 1.6 1.6 0.00 0.05 0.00 70 1022.2
20260831160715 25 264 0.0 1.6 0.00 0.05 0.00 70 1022.2
20260831160217 24 264 3.2 3.2 0.00 0.05 0.00 71 1022.2
20260831155716 24 264 0.0 1.6 0.00 0.05 0.00 73 1022.3
20260831155221 23 264 1.6 1.6 0.00 0.05 0.00 73 1022.3
20260831154737 23 264 3.2 3.2 0.00 0.05 0.00 73 1022.2
20260831154216 24 264 1.6 1.6 0.00 0.05 0.00 72 1022.2
20260831153738 24 0.0 0.0 0.00 0.05 0.00 74 1022.2
20260831153220 23 135 3.2 4.8 0.00 0.05 0.00 73 1022.2
20260831152736 24 0.0 0.0 0.00 0.05 0.00 76 1022.3
20260831152215 23 157 1.6 3.2 0.00 0.05 0.00 74 1022.3
20260831151717 23 22 1.6 3.2 0.00 0.05 0.00 77 1022.3
20260831151216 22 33 1.6 1.6 0.00 0.05 0.00 77 1022.4
20260831150715 22 33 1.6 1.6 0.00 0.05 0.00 77 1022.4
20260831150240 22 33 0.0 1.6 0.00 0.05 0.00 77 1022.4
20260831145521 22 33 1.6 1.6 0.00 0.05 0.00 77 1022.5
20260831145017 22 48 1.6 3.2 0.00 0.05 0.00 78 1022.5
20260831144538 22 48 0.0 1.6 0.00 0.05 0.00 76 1022.6
20260831144015 22 48 1.6 1.6 0.00 0.05 0.00 77 1022.6
20260831143517 22 0.0 0.0 0.00 0.05 0.00 77 1022.6
20260831143036 22 54 1.6 1.6 0.00 0.05 0.00 77 1022.6
20260831142515 22 54 1.6 1.6 0.00 0.05 0.00 76 1022.6
20260831142020 22 59 0.0 1.6 0.00 0.05 0.00 75 1022.5
20260831141516 22 71 0.0 3.2 0.00 0.05 0.00 76 1022.5
20260831141015 22 0.0 0.0 0.00 0.05 0.00 75 1022.5
20260831140520 22 0.0 0.0 0.00 0.05 0.00 75 1022.4
20260831140016 22 0.0 0.0 0.00 0.05 0.00 74 1022.4
20260831135538 22 71 0.0 1.6 0.00 0.05 0.00 74 1022.4
20260831135017 22 0.0 0.0 0.00 0.05 0.00 75 1022.3
20260831134519 22 109 0.0 1.6 0.00 0.05 0.00 73 1022.3
20260831134015 22 0.0 0.0 0.00 0.05 0.00 78 1022.3
20260831133534 -17 0.0 0.0 0.00 0.05 0.00
20260831133214 21 23 0.0 1.6 0.00 0.05 0.00 78 1022.3
20260831132716 21 0.0 0.0 0.00 0.05 0.00 80 1022.3
20260831132215 21 23 0.0 1.6 0.00 0.05 0.00 81 1022.3
20260831131734 21 0.0 0.0 0.00 0.05 0.00 81 1022.4
20260831131216 21 0.0 0.0 0.00 0.05 0.00 81 1022.4
20260831130718 21 0.0 0.0 0.00 0.05 0.00 81 1022.4
20260831130214 21 23 0.0 1.6 0.00 0.05 0.00 81 1022.4
20260831125716 21 0.0 0.0 0.00 0.05 0.00 81 1022.4
20260831125218 21 23 1.6 1.6 0.00 0.05 0.00 82 1022.4
20260831124714 21 23 0.0 1.6 0.00 0.05 0.00 83 1022.4
20260831124216 21 0.0 0.0 0.00 0.05 0.00 83 1022.4
20260831123715 21 23 0.0 1.6 0.00 0.05 0.00 83 1022.4
20260831123214 21 23 1.6 1.6 0.00 0.05 0.00 83 1022.3
20260831122716 21 23 1.6 1.6 0.00 0.05 0.00 83 1022.3
20260831122215 21 23 1.6 3.2 0.00 0.05 0.00 84 1022.3
20260831121737 21 23 0.0 3.2 0.00 0.05 0.00 84 1022.2
20260831121216 21 0.0 0.0 0.00 0.05 0.00 83 1022.2
20260831120718 21 23 1.6 3.2 0.00 0.05 0.00 84 1022.2
20260831120215 21 0.0 0.0 0.00 0.05 0.00
20260831115915 21 0.0 0.0 0.00 0.05 0.00 84 1022.1
20260831115416 21 164 0.0 1.6 0.00 0.05 0.00 85 1022.1
20260831114915 21 0.0 0.0 0.00 0.05 0.00 86 1022.1
20260831114414 21 0.0 0.0 0.00 0.05 0.00 87 1022.1
20260831113916 21 0.0 0.0 0.00 0.05 0.00 86 1022.1
20260831113415 20 0.0 0.0 0.00 0.05 0.00 86 1022.0
20260831112914 20 0.0 0.0 0.00 0.05 0.00 88 1022.0
20260831112419 20 0.0 0.0 0.00 0.05 0.00 89 1022.0
20260831111915 20 0.0 0.0 0.00 0.05 0.00 88 1021.8
20260831111417 20 0.0 0.0 0.00 0.05 0.00 89 1021.8
20260831110922 20 29 0.0 1.6 0.00 0.05 0.00 89 1021.8
20260831110415 20 0.0 0.0 0.00 0.05 0.00 90 1021.7
20260831105915 20 0.0 0.0 0.00 0.05 0.00 89 1021.6
20260831105436 20 29 0.0 1.6 0.00 0.05 0.00 89 1021.6
20260831104918 20 0.0 0.0 0.00 0.05 0.00 88 1021.6
20260831104417 20 0.0 0.0 0.00 0.05 0.00 88 1021.7
20260831103936 20 0.0 0.0 0.00 0.05 0.00 88 1021.7
20260831103418 20 0.0 0.0 0.00 0.05 0.00
20260831102915 20 29 1.6 1.6 0.00 0.05 0.00 87 1021.5
20260831102437 20 29 1.6 1.6 0.00 0.05 0.00 87 1021.5
20260831101915 20 0.0 0.0 0.00 0.05 0.00 88 1021.3
20260831101434 20 0.0 0.0 0.00 0.05 0.00 88 1021.3
20260831100919 20 0.0 0.0 0.00 0.05 0.00 89 1021.3
20260831100416 20 29 0.0 1.6 0.00 0.05 0.00 89 1021.1
20260831095914 20 0.0 0.0 0.00 0.05 0.00 89 1021.1
20260831095416 20 29 0.0 1.6 0.00 0.05 0.00 89 1021.1
20260831094941 21 29 1.6 1.6 0.00 0.05 0.00 89 1021.0
20260831094420 20 29 1.6 1.6 0.00 0.05 0.00 89 1021.0
20260831093917 21 29 1.6 3.2 0.00 0.05 0.00 90 1021.0
20260831093416 21 29 1.6 3.2 0.00 0.05 0.00 90 1020.7
20260831092915 21 29 1.6 1.6 0.00 0.05 0.00 91 1020.7
20260831092436 21 29 1.6 1.6 0.00 0.05 0.00 91 1020.7
20260831091916 21 29 3.2 3.2 0.00 0.05 0.00 91 1020.9
20260831091417 21 29 1.6 3.2 0.00 0.05 0.00 91 1020.9
20260831090916 21 29 1.6 3.2 0.00 0.05 0.00 90 1020.9
20260831090416 21 29 1.6 3.2 0.00 0.05 0.00 90 1021.0
20260831085914 21 29 3.2 3.2 0.00 0.05 0.00 90 1021.0
20260831085416 21 35 3.2 3.2 0.00 0.05 0.00 90 1021.0
20260831084916 21 179 1.6 1.6 0.00 0.05 0.00 89 1020.9
20260831084415 21 179 0.0 1.6 0.00 0.05 0.00 89 1020.9
20260831083917 21 179 1.6 1.6 0.00 0.05 0.00 89 1020.9
20260831083415 21 179 1.6 1.6 0.00 0.05 0.00 89 1020.7
20260831082937 21 0.0 0.0 0.00 0.05 0.00 89 1020.7
20260831082417 21 0.0 0.0 0.00 0.05 0.00 89 1020.7
20260831081936 21 0.0 0.0 0.00 0.05 0.00 90 1020.7
20260831081415 21 0.0 0.0 0.00 0.05 0.00 92 1020.7
20260831080917 21 0.0 0.0 0.00 0.05 0.00 92 1020.7
20260831080416 21 0.0 0.0 0.00 0.05 0.00 92 1020.8
20260831075915 21 179 1.6 1.6 0.00 0.05 0.00 91 1020.8
20260831075417 21 0.0 0.0 0.00 0.05 0.00 91 1020.8
20260831074916 21 0.0 0.0 0.00 0.05 0.00 91 1020.8
20260831074415 21 0.0 0.0 0.00 0.05 0.00 91 1020.8
20260831073919 21 0.0 0.0 0.00 0.05 0.00 91 1020.8
20260831073419 -17 0.0 0.0 0.00 0.05 0.00
20260831073115 21 0.0 0.0 0.00 0.05 0.00 91 1020.8
20260831072635 21 0.0 0.0 0.00 0.05 0.00 91 1020.8
20260831072117 21 0.0 0.0 0.00 0.05 0.00 91 1020.8
20260831071636 21 0.0 0.0 0.00 0.05 0.00 91 1020.9
20260831071115 21 0.0 0.0 0.00 0.05 0.00 91 1020.9
20260831070617 21 0.0 0.0 0.00 0.05 0.00 91 1021.0
20260831070156 21 0.0 0.0 0.00 0.05 0.00 91 1021.1
20260831065615 21 0.0 0.0 0.00 0.05 0.00 91 1021.1
20260831065117 21 0.0 0.0 0.00 0.05 0.00 91 1021.1
20260831064616 21 0.0 0.0 0.00 0.05 0.00 91 1021.2
20260831064115 21 0.0 0.0 0.00 0.05 0.00 91 1021.2
20260831063616 21 0.0 0.0 0.00 0.05 0.00 91 1021.2
20260831063116 21 0.0 0.0 0.00 0.05 0.00 91 1021.2
20260831062618 21 0.0 0.0 0.00 0.05 0.00 91 1021.2
20260831062117 21 0.0 0.0 0.00 0.05 0.00 90 1021.2
20260831061636 21 0.0 0.0 0.00 0.05 0.00 90 1021.1
20260831061118 21 0.0 0.0 0.00 0.05 0.00 90 1021.0
20260831060637 21 0.0 0.0 0.00 0.05 0.00 90 1021.0
20260831060215 21 0.0 0.0 0.00 0.05 0.00 90 1021.0
20260831055717 21 179 0.0 3.2 0.00 0.05 0.00
20260831054817 21 175 1.6 1.6 0.00 0.05 0.00 89 1021.0
20260831054316 21 209 0.0 1.6 0.00 0.05 0.00 89 1021.0
20260831053815 21 0.0 0.0 0.00 0.05 0.00 89 1021.0
20260831053317 21 0.0 0.0 0.00 0.05 0.00 89 1020.9
20260831052816 21 209 1.6 1.6 0.00 0.05 0.00 89 1020.9
20260831052315 21 0.0 0.0 0.00 0.05 0.00 89 1020.9
20260831051817 21 0.0 0.0 0.00 0.05 0.00 89 1021.0
20260831051316 21 0.0 0.0 0.00 0.05 0.00 89 1021.0
20260831050815 21 0.0 0.0 0.00 0.05 0.00 89 1021.0
20260831050317 21 0.0 0.0 0.00 0.05 0.00 89 1021.0
20260831045819 21 0.0 0.0 0.00 0.05 0.00 88 1021.0
20260831045320 21 0.0 0.0 0.00 0.05 0.00 88 1021.0
20260831044817 21 209 0.0 1.6 0.00 0.05 0.00 87 1021.1
20260831044319 22 260 0.0 3.2 0.00 0.05 0.00 87 1021.2
20260831043815 22 0.0 0.0 0.00 0.05 0.00 87 1021.2
20260831043357 22 0.0 0.0 0.00 0.05 0.00
20260831043116 22 0.0 0.0 0.00 0.05 0.00 87 1021.2
20260831042618 22 260 0.0 1.6 0.00 0.05 0.00 86 1021.2
20260831042120 22 260 1.6 1.6 0.00 0.05 0.00 86 1021.1
20260831041636 22 260 1.6 1.6 0.00 0.05 0.00 86 1021.3
20260831041155 22 260 1.6 3.2 0.00 0.05 0.00 87 1021.3
20260831040620 21 0.0 0.0 0.00 0.05 0.00 87 1021.3
20260831040116 22 0.0 0.0 0.00 0.05 0.00 86 1021.1
20260831035618 22 0.0 0.0 0.00 0.05 0.05 87 1021.1
20260831035117 22 0.0 0.0 0.00 0.05 0.05 85 1021.1
20260831034619 22 0.0 0.0 0.00 0.05 0.05 85 1021.2
20260831034135 22 0.0 0.0 0.00 0.05 0.05 85 1021.2
20260831033617 22 0.0 0.0 0.00 0.05 0.05 85 1021.2
20260831033116 22 0.0 0.0 0.00 0.05 0.05 84 1021.5
20260831032615 22 0.0 0.0 0.00 0.05 0.05 84 1021.5
20260831032117 22 209 0.0 1.6 0.00 0.05 0.05 84 1021.5
20260831031616 22 0.0 0.0 0.00 0.05 0.05 84 1021.3
20260831031115 22 0.0 0.0 0.00 0.05 0.05 83 1021.3
20260831030620 22 235 0.0 3.2 0.00 0.05 0.05 83 1021.3
20260831030116 22 228 0.0 1.6 0.00 0.05 0.05 82 1021.6
20260831025615 22 219 1.6 1.6 0.00 0.05 0.05 82 1021.6
20260831025117 22 194 1.6 4.8 0.00 0.05 0.05 81 1021.6
20260831024619 22 255 1.6 3.2 0.00 0.05 0.05 81 1021.8
20260831024115 23 264 1.6 3.2 0.00 0.05 0.05 81 1021.8
20260831023637 23 309 0.0 1.6 0.00 0.05 0.05 81 1021.8
20260831023116 23 277 1.6 3.2 0.00 0.05 0.05 82 1021.6
20260831022615 23 242 3.2 8.0 0.00 0.05 0.05 82 1021.7
20260831022117 -17 0.0 0.0 0.00 0.05 0.05 83
20260831021616 23 271 1.6 1.6 0.00 0.05 0.05 84 1021.4
20260831021115 23 0.0 0.0 0.00 0.05 0.05 84 1021.4
20260831020617 24 271 0.0 1.6 0.00 0.05 0.05 84 1021.4
20260831020119 24 271 1.6 1.6 0.00 0.05 0.05 84 1021.3
20260831015615 24 266 0.0 1.6 0.00 0.05 0.05 85 1021.2
20260831015117 24 0.0 0.0 0.00 0.05 0.05 85 1021.2
20260831014636 24 264 0.0 1.6 0.00 0.05 0.05 84 1021.4
20260831014115 24 264 1.6 3.2 0.00 0.05 0.05 83 1021.4
20260831013634 25 209 3.2 6.4 0.00 0.05 0.05 83 1021.4
20260831013139 25 262 1.6 3.2 0.00 0.05 0.05 83 1021.3
20260831012615 -17 0.0 0.0 0.00 0.05 0.05
20260831012318 25 206 1.6 1.6 0.00 0.05 0.05 83 1021.2
20260831011817 25 197 1.6 6.4 0.00 0.05 0.05 84 1021.1
20260831011336 24 279 1.6 3.2 0.00 0.05 0.05 84 1021.1
20260831010818 24 0.0 0.0 0.00 0.05 0.05 84 1021.1
20260831010317 24 279 0.0 1.6 0.00 0.05 0.05 85 1020.7
20260831005816 24 279 0.0 3.2 0.00 0.05 0.05 86 1020.7
20260831005318 23 0.0 0.0 0.00 0.05 0.05 87 1020.6
20260831004817 23 0.0 0.0 0.00 0.05 0.05 87 1020.6
20260831004359 23 0.0 0.0 0.00 0.05 0.05 87 1020.6
20260831003815 23 0.0 0.0 0.00 0.05 0.05 87 1020.6
20260831003317 23 0.0 0.0 0.00 0.05 0.05 87 1020.4
20260831002819 23 0.0 0.0 0.00 0.05 0.05 86 1020.4
20260831002318 24 0.0 0.0 0.00 0.05 0.05 86 1020.4
20260831001937 24 0.0 0.0 0.00 0.05 0.05 85 1020.4
20260831001316 24 0.0 0.0 0.00 0.05 0.05 85 1020.4